Other Surface Observations
Issued by NWS

Home | Current Version | Previous Version | Text Only | Print | Product List | Glossary On
Versions: 1 2 3 4 5 6 7 8 9 10 11 12 13 14 15 16 17 18 19 20 21 22 23 24 25 26 27 28 29 30 31 32 33 34 35 36 37 38 39 40 41 42 43 44 45 46 47 48 49 50
000
SXUS52 KTAE 250118
OSOTAE
OSOTAE
North Florida/South Alabama/Southwest Georgia Weather Roundup
National Weather Service Tallahassee Florida
900 PM EDT FRI OCT 24 2014

Note: "fair" indicates few or no clouds below 12,000 feet with no
significant weather and/or obstructions to visibility.

!FLZ017-115-028-034-025-250200
...North Florida...

CITY           SKY/WX    TMP DP  RH WIND       PRES   REMARKS
TALLAHASSEE    CLEAR     61  48  62 NW5       30.00R
APALACHICOLA   CLEAR     62  53  72 CALM      30.00R
PERRY          CLEAR     55  50  82 CALM      30.00S
CROSS CITY       N/A     58  51  78 CALM      29.99R
JACKSONVILLE   CLEAR     58  55  90 CALM      29.99R
$$

!FLZ112-006-005-002-011-250200
...Florida Panhandle...

CITY           SKY/WX    TMP DP  RH WIND       PRES   REMARKS
MARIANNA       LGT RAIN  58  51  78 CALM      30.01R
BONIFAY        NOT AVBL
PANAMA CITY NW FAIR      57  51  80 CALM      30.00S
TYNDALL AFB    CLEAR     59  53  79 CALM      30.01R
TYND DRONE APT FAIR      60  54  82 MISG      29.99R
DE FUNIAK SPR  FAIR      60  49  66 CALM      30.03R
EGLIN AFB      CLEAR     62  47  57 NW2       30.02R
DESTIN         CLEAR     64  52  64 CALM      30.02R
HURLBURT       CLEAR     60  48  66 CALM      30.01R
CRESTVIEW      CLEAR     54  49  83 CALM      30.04R
PENSACOLA      CLEAR     64  45  49 N6        30.03R
$$

!ALZ063-066-250200
...South Alabama...

CITY           SKY/WX    TMP DP  RH WIND       PRES   REMARKS
DOTHAN         CLEAR     56  46  69 N3        30.05R
OZARK CAIRNS   CLEAR     62  46  55 NW5       30.02R
FT RUCKER HELI CLEAR     55  50  83 CALM      30.01R
RUCKER HELI 3  FAIR      58  49  72 NW2       30.04S
RUCKER HELI 2  FAIR      56  51  84 NW5       30.02R
FLORALA APT    CLEAR     55  49  80 CALM      30.04S
ANDALUSIA      CLEAR     61  49  64 CALM      30.03R
TROY           CLEAR     55  48  77 CALM      30.03S
EUFALA         FAIR      53  49  86 CALM      30.01S
MOBILE         CLEAR     58  49  72 CALM      30.06R
$$

!GAZ120>161-250200
...Southwest and South Central Georgia...

CITY           SKY/WX    TMP DP  RH WIND       PRES   REMARKS
THOMASVILLE    FAIR      57  54  88 CALM      30.01S
BAINBRIDGE     CLEAR     59  52  77 CALM      30.01R
MOODY AFB      CLEAR     58  48  69 NE1       30.00R
VALDOSTA       CLEAR     54  46  74 CALM      30.00R
MOULTRIE       CLEAR     59  54  82 CALM      30.02R
BLAKELY        CLEAR     55  52  88 CALM        N/A
ALBANY         CLEAR     57  52  83 NW3       30.03R
TIFTON         FAIR      56  48  74 NE3       30.01R
FITZGERALD     FAIR      55  48  76 CALM      30.03R
CORDELE        FAIR      57  50  76 CALM      30.02S
AMERICUS       FAIR      55  50  82 CALM      30.02F
HOMERVILLE     FAIR      55  54  94 CALM      30.00R
$$

!GMZ750-755-770-775-250200
...Coastal and Buoy Obs...

STATION/POSITION TIME  TEMP    WIND        PRES    VSBY  WAVE
                       AIR SEA DIR/SP/G                  HT/PER
                 (UTC) (F)     (DEG/KT/KT) (MB)    (MI)  (FT/S)
KEATON BEACH     0100   66     350/  2/  4 1015.7R
CEDAR KEY        0055   67     350/  6/ 10 1015.8R
C TOWER          0100   70     300/  5/  5 1016.0S
APALACHICOLA BUO 0100   72 80  360/ 14/ 16 1015.6R         2/ 4
PANAMA CITY BUOY NOT AVBL
MOBILE BUOY      0050   72 78  360/ 12/ 14 1017.8R         2/ 8
ORANGE BCH AL BU 0100   74 78  340/ 14/ 17 1016.4R         1/ 8
$$



USA.gov is the U.S. government's official web portal to all federal, state and local government web resources and services.